GOES 5 1 12472U 81049A 21065.45880255 .00000035 00000-0 00000-0 0 9997 2 12472 12.7211 331.0669 0003004 16.3598 213.0991 1.00221548103506 GOES 5 AKM 1 33521U 81049D 21064.84964491 -.00000202 00000-0 00000-0 0 9999 2 33521 20.6065 331.0185 1634630 103.0029 66.9326 0.82271124 42728